Regional Weather Roundup
Issued by NWS

Home | Current Version | Previous Version | Graphics & Text | Print | Product List | Glossary On
Versions: 1 2 3 4 5 6 7 8 9 10 11 12 13 14 15 16 17 18 19 20 21 22 23 24 25 26 27 28 29 30 31 32 33 34 35 36 37 38 39 40 41 42 43 44 45 46 47 48 49 50
000
ASUS43 KIND 212059
RWRIN

WEATHER ROUNDUP FOR INDIANA
NATIONAL WEATHER SERVICE INDIANAPOLIS IN
400 PM EST SAT JAN 21 2017

NOTE: "FAIR" INDICATES FEW OR NO CLOUDS BELOW 12,000 FEET WITH NO
SIGNIFICANT WEATHER AND/OR OBSTRUCTIONS TO VISIBILITY.

* - STATION DOES NOT REPORT WEATHER SUCH AS PRECIPITATION OR FOG.

+ - STATION NOT QUALITY CONTROLLED BY THE NATIONAL WEATHER SERVICE.
    USE DATA WITH CAUTION...ESPECIALLY DEWPOINT AND RELATIVE
    HUMIDITY OBSERVATIONS.

INZ001>003-010>013-019-020-212200-
NORTHWEST INDIANA

CITY           SKY/WX    TMP DP  RH WIND       PRES   REMARKS
GARY /AIRPORT/ MOSUNNY   61  46  59 SW16      29.48F
MONTICELLO +   SUNNY     62  49  62 S10       29.51S

$$

LMZ046-743>745-212200-
SOUTHERN LAKE MICHIGAN

STATION/POSITION TIME  TEMP    WIND        PRES    WAVE
                       AIR SEA DIR/SP/G            HT
                 (UTC) (F)     (DEG/KT/KT) (MB)    (FT)
BURNS HARBOR     2040   59     190/ 18/ 23  998.6F
MICHIGAN CITY    2030   60     170/ 16/ 18   N/A

$$

INZ004-005-014>016-021>024-212200-
NORTH CENTRAL INDIANA

CITY           SKY/WX    TMP DP  RH WIND       PRES   REMARKS
ELKHART        SUNNY     61  50  67 S12G17    29.50F
GOSHEN         SUNNY     61  50  67 S12       29.52F
SOUTH BEND     SUNNY     61  50  67 SW13      29.51F

$$

INZ006>009-017-018-025>027-212200-
NORTHEAST INDIANA

CITY           SKY/WX    TMP DP  RH WIND       PRES   REMARKS
ANGOLA *+      SUNNY     59  54  82 S9        29.54F
FORT WAYNE     MOSUNNY   62  52  69 S12       29.56F
KENDALLVILLE + SUNNY     60  51  73 S12       29.54F

$$

INZ028-029-035-036-043>045-051>053-212200-
WEST CENTRAL INDIANA

CITY           SKY/WX    TMP DP  RH WIND       PRES   REMARKS
CRAWFORDSVL +  SUNNY     61  53  72 SW13      29.54S
LAFAYETTE      SUNNY     63  51  65 S9        29.53R
TERRE HAUTE    NOT AVBL

$$

INZ030>032-037>040-046>048-054>057-064-065-212200-
CENTRAL INDIANA

CITY           SKY/WX    TMP DP  RH WIND       PRES   REMARKS
ANDERSON       SUNNY     63  54  72 S12G17    29.58F
COLUMBUS       SUNNY     64  57  77 S14       29.59F
INDIANAPOLIS   MOSUNNY   66  52  60 SW13      29.56R
-EAGLE CREEK   MOSUNNY   66  50  56 SW12G20   29.55R
KOKOMO +       SUNNY     63  53  70 S10       29.55S
MT COMFORT *+  SUNNY     63  54  72 S10       29.58R
SHELBYVILLE    SUNNY     63  53  70 S16       29.57S

$$

INZ033-034-041-042-049-050-058-059-212200-
EAST CENTRAL INDIANA

CITY           SKY/WX    TMP DP  RH WIND       PRES   REMARKS
MUNCIE         SUNNY     64  53  67 S10G22    29.57R

$$

INZ060-061-067>069-081>083-085>088-212200-
SOUTHWEST INDIANA

CITY           SKY/WX    TMP DP  RH WIND       PRES   REMARKS
EVANSVILLE     MOSUNNY   69  51  52 S14       29.58S
HUNTINGBURG *+ SUNNY     66  54  63 S12       29.59F

$$

INZ062-063-066-070>080-084-089>092-212200-
SOUTH CENTRAL AND SOUTHEAST INDIANA

CITY           SKY/WX    TMP DP  RH WIND       PRES   REMARKS
BLOOMINGTON    MOSUNNY   66  51  58 SW13G22   29.57R
MADISON *+     MOSUNNY   64  54  68 S9        29.63S
SEYMOUR +      SUNNY     68  55  64 SW12      29.59F

$$




USA.gov is the U.S. government's official web portal to all federal, state and local government web resources and services.